Yatton Keynell, United Kingdom

5:43 PM GMT on March 23, 2019 (GMT +0000)
Yatton Keynell

Weather History for 03740 - August, 1999

Change the Weather History Date:

Wednesday, August 4, 1999

  Actual Average Record
Temperature  
Mean Temperature 66 °F -  
Max Temperature 73 °F 67 °F - ()
Min Temperature 59 °F 52 °F - ()
Cooling Degree Days 1    
Growing Degree Days 16 (Base 50)    
Moisture  
Dew Point 58 °F    
Average Humidity 77    
Maximum Humidity 94    
Minimum Humidity 57    
Precipitation  
Precipitation 0.00 in 0.08 in - ()
Sea Level Pressure  
Sea Level Pressure 29.80 in    
Wind  
Wind Speed 5 mph ()    
Max Wind Speed 14 mph    
Max Gust Speed -    
Visibility 6.2 miles    
Events Rain    
T = Trace of Precipitation, MM = Missing Value Source: Averaged Metar Reports

Daily Weather History Graph

Daily Weather History Graph

Search for Another Location

Airport or City:

Astronomy

Aug. 04, 1999 Rise Set
Actual Time 5:35 AM BST 8:51 PM BST
Civil Twilight 4:55 AM BST 9:31 PM BST
Nautical Twilight 4:01 AM BST 10:24 PM BST
Astronomical Twilight 2:49 AM BST 11:34 PM BST
Moon No Moon Rise 1:37 PM BST (8/4)
Length of Visible Light 16h 36m
Length of Day
15h 16m
Waning Gibbous, 53% of the Moon is Illuminated
Aug 4
Waning Gibbous
Aug 4
Last Quarter
Aug 11
New
Aug 19
First Quarter
Aug 27
Full

Hourly Weather History & Observations

Time (BST) Temp. Dew Point Humidity Pressure Visibility Wind Dir Wind Speed Gust Speed Precip Events Conditions
12:50 AM 60.8 °F 57.2 °F 88% 29.89 in - SSE 3.5 mph - N/A   Clear
1:50 AM 60.8 °F 55.4 °F 82% 29.86 in - SSW 5.8 mph - N/A   Clear
2:50 AM 60.8 °F 55.4 °F 82% 29.86 in - SSW 4.6 mph - N/A   Clear
3:50 AM 59.0 °F 55.4 °F 88% 29.86 in - SSW 3.5 mph - N/A   Clear
4:50 AM 59.0 °F 55.4 °F 88% 29.86 in - Calm Calm - N/A   Clear
5:50 AM 59.0 °F 53.6 °F 82% 29.86 in - Calm Calm - N/A   Clear
6:50 AM 60.8 °F 55.4 °F 82% 29.86 in - East 5.8 mph - N/A   Clear
7:50 AM 60.8 °F 55.4 °F 82% 29.83 in - East 5.8 mph - N/A   Clear
8:50 AM 62.6 °F 57.2 °F 82% 29.86 in - ESE 4.6 mph - N/A   Clear
9:50 AM 64.4 °F 57.2 °F 77% 29.83 in - ESE 6.9 mph - N/A   Clear
10:50 AM 68.0 °F 53.6 °F 60% 29.83 in - SE 5.8 mph - N/A   Clear
11:50 AM 69.8 °F 55.4 °F 60% 29.83 in 6.2 mi SE 6.9 mph - N/A   Mostly Cloudy
12:50 PM 73.4 °F 57.2 °F 57% 29.80 in 6.2 mi SE 8.1 mph - N/A   Mostly Cloudy
1:50 PM 73.4 °F 57.2 °F 57% 29.80 in 6.2 mi SSE 9.2 mph - N/A   Mostly Cloudy
2:50 PM 71.6 °F 57.2 °F 60% 29.80 in 6.2 mi ESE 10.4 mph - N/A   Overcast
3:50 PM 71.6 °F 59.0 °F 64% 29.77 in 6.2 mi ESE 10.4 mph - N/A   Overcast
4:50 PM 71.6 °F 60.8 °F 69% 29.77 in 6.2 mi East 8.1 mph - N/A Rain Light Rain
5:50 PM 71.6 °F 59.0 °F 64% 29.74 in 6.2 mi East 8.1 mph - N/A Rain Light Rain
6:50 PM 68.0 °F 62.6 °F 83% 29.74 in 6.2 mi East 9.2 mph - N/A Rain Light Rain
7:50 PM 66.2 °F 62.6 °F 88% 29.74 in 6.2 mi ENE 6.9 mph - N/A Rain Light Rain
8:50 PM 66.2 °F 60.8 °F 83% 29.74 in 6.2 mi East 10.4 mph - N/A Rain Light Rain
9:50 PM 64.4 °F 60.8 °F 88% 29.71 in 6.2 mi ESE 13.8 mph - N/A Rain Light Rain
10:50 PM 64.4 °F 60.8 °F 88% 29.74 in 6.2 mi ESE 13.8 mph - N/A Rain Light Rain
11:50 PM 62.6 °F 60.8 °F 94% 29.74 in 6.2 mi ESE 11.5 mph - N/A Rain Light Rain